Time,TemperatureF,DewpointF,PressureIn,WindDirection,WindDirectionDegrees,WindSpeedMPH,WindSpeedGustMPH,Humidity,HourlyPrecipIn,Conditions,Clouds,dailyrainin,SoftwareType,DateUTC
2013-10-02 00:12:00,48.0,34.0,29.70,WSW,241,4.0,10.0,57,0.00,,,0.00,,2013-10-02 06:12:00,
2013-10-02 00:21:00,48.0,33.0,29.70,SW,224,3.0,4.0,56,0.00,,,0.00,,2013-10-02 06:21:00,
2013-10-02 00:42:00,48.0,34.0,29.70,ENE,74,2.0,6.0,58,0.00,,,0.00,,2013-10-02 06:42:00,
2013-10-02 00:52:00,47.0,33.0,29.71,South,169,6.0,8.0,58,0.00,,,0.00,,2013-10-02 06:52:00,
2013-10-02 01:11:00,46.0,32.0,29.72,SSE,156,7.0,10.0,58,0.00,,,0.00,,2013-10-02 07:11:00,
2013-10-02 01:21:00,46.0,33.0,29.72,South,186,7.0,11.0,61,0.00,,,0.00,,2013-10-02 07:21:00,
2013-10-02 01:42:00,46.0,33.0,29.73,South,176,7.0,12.0,60,0.00,,,0.00,,2013-10-02 07:42:00,
2013-10-02 01:52:00,46.0,32.0,29.75,SSW,207,8.0,12.0,59,0.00,,,0.00,,2013-10-02 07:52:00,
2013-10-02 02:11:00,46.0,32.0,29.77,South,180,6.0,14.0,58,0.00,,,0.00,,2013-10-02 08:11:00,
2013-10-02 02:21:00,46.0,32.0,29.77,South,186,10.0,14.0,57,0.00,,,0.00,,2013-10-02 08:21:00,
2013-10-02 02:52:00,45.0,30.0,29.78,SSW,205,7.0,11.0,55,0.00,,,0.00,,2013-10-02 08:52:00,
2013-10-02 03:11:00,45.0,30.0,29.78,SSE,165,2.0,8.0,56,0.00,,,0.00,,2013-10-02 09:11:00,
2013-10-02 03:21:00,45.0,31.0,29.78,SE,124,4.0,9.0,57,0.00,,,0.00,,2013-10-02 09:21:00,
2013-10-02 03:54:00,43.0,30.0,29.79,SSW,197,3.0,4.0,59,0.00,,,0.00,,2013-10-02 09:54:00,
2013-10-02 04:02:00,43.0,30.0,29.79,SSW,197,3.0,4.0,59,0.00,,,0.00,,2013-10-02 10:02:00,
2013-10-02 04:12:00,43.0,30.0,29.79,SSW,197,3.0,4.0,59,0.00,,,0.00,,2013-10-02 10:12:00,
2013-10-02 04:22:00,43.0,30.0,29.79,SSW,202,4.0,8.0,60,0.00,,,0.00,,2013-10-02 10:22:00,
2013-10-02 04:42:00,42.0,30.0,29.79,SSW,205,5.0,7.0,62,0.00,,,0.00,,2013-10-02 10:42:00,
2013-10-02 04:52:00,43.0,30.0,29.80,SSW,207,6.0,8.0,59,0.00,,,0.00,,2013-10-02 10:52:00,
2013-10-02 05:12:00,42.0,30.0,29.80,SW,216,9.0,12.0,62,0.00,,,0.00,,2013-10-02 11:12:00,
2013-10-02 05:21:00,41.0,31.0,29.82,SSW,205,7.0,10.0,66,0.00,,,0.00,,2013-10-02 11:21:00,
2013-10-02 05:52:00,40.0,31.0,29.83,SE,138,2.0,6.0,71,0.00,,,0.00,,2013-10-02 11:52:00,
2013-10-02 06:11:00,39.0,32.0,29.83,SSW,196,7.0,12.0,75,0.00,,,0.00,,2013-10-02 12:11:00,
2013-10-02 06:21:00,39.0,32.0,29.84,SSW,207,7.0,11.0,76,0.00,,,0.00,,2013-10-02 12:21:00,
2013-10-02 06:42:00,39.0,32.0,29.84,SSW,199,6.0,10.0,77,0.00,,,0.00,,2013-10-02 12:42:00,
2013-10-02 06:52:00,39.0,33.0,29.85,South,184,9.0,14.0,78,0.00,,,0.00,,2013-10-02 12:52:00,
2013-10-02 07:11:00,38.0,32.0,29.85,SSW,193,4.0,7.0,79,0.00,,,0.00,,2013-10-02 13:11:00,
2013-10-02 07:22:00,38.0,32.0,29.86,SSW,194,5.0,7.0,80,0.00,,,0.00,,2013-10-02 13:22:00,
2013-10-02 07:52:00,38.0,33.0,29.86,South,179,8.0,14.0,81,0.00,,,0.00,,2013-10-02 13:52:00,
2013-10-02 08:11:00,38.0,33.0,29.87,SSW,205,6.0,11.0,82,0.00,,,0.00,,2013-10-02 14:11:00,
2013-10-02 08:21:00,39.0,33.0,29.87,SSW,205,7.0,11.0,80,0.00,,,0.00,,2013-10-02 14:21:00,
2013-10-02 08:42:00,40.0,34.0,29.88,South,169,5.0,10.0,78,0.00,,,0.00,,2013-10-02 14:42:00,
2013-10-02 08:52:00,39.0,33.0,29.88,SSE,153,4.0,11.0,79,0.00,,,0.00,,2013-10-02 14:52:00,
2013-10-02 09:11:00,40.0,34.0,29.88,NNW,331,5.0,7.0,79,0.00,,,0.00,,2013-10-02 15:11:00,
2013-10-02 09:21:00,42.0,34.0,29.88,North,355,6.0,10.0,73,0.00,,,0.00,,2013-10-02 15:21:00,
2013-10-02 09:43:00,42.0,34.0,29.89,NE,46,4.0,8.0,72,0.00,,,0.00,,2013-10-02 15:43:00,
2013-10-02 09:53:00,42.0,35.0,29.88,ENE,65,6.0,9.0,75,0.00,,,0.00,,2013-10-02 15:53:00,
2013-10-02 10:12:00,41.0,34.0,29.89,ENE,65,1.0,5.0,76,0.00,,,0.00,,2013-10-02 16:12:00,
2013-10-02 10:23:00,44.0,35.0,29.89,East,96,6.0,9.0,71,0.00,,,0.00,,2013-10-02 16:23:00,
2013-10-02 10:52:00,45.0,34.0,29.90,ENE,74,5.0,9.0,66,0.00,,,0.00,,2013-10-02 16:52:00,
2013-10-02 11:12:00,46.0,35.0,29.90,East,95,3.0,7.0,65,0.00,,,0.00,,2013-10-02 17:12:00,
2013-10-02 11:23:00,46.0,35.0,29.91,NNE,24,1.0,7.0,64,0.00,,,0.00,,2013-10-02 17:23:00,
2013-10-02 11:42:00,47.0,35.0,29.91,East,92,4.0,7.0,63,0.00,,,0.00,,2013-10-02 17:42:00,
2013-10-02 11:52:00,46.0,35.0,29.91,ENE,60,5.0,8.0,66,0.00,,,0.00,,2013-10-02 17:52:00,
2013-10-02 12:12:00,46.0,35.0,29.90,East,84,3.0,7.0,65,0.00,,,0.00,,2013-10-02 18:12:00,
2013-10-02 12:21:00,46.0,35.0,29.90,NE,42,1.0,7.0,64,0.00,,,0.00,,2013-10-02 18:21:00,
2013-10-02 12:42:00,47.0,35.0,29.89,ENE,76,1.0,6.0,62,0.00,,,0.00,,2013-10-02 18:42:00,
2013-10-02 12:52:00,48.0,34.0,29.89,NNE,29,6.0,9.0,59,0.00,,,0.00,,2013-10-02 18:52:00,
2013-10-02 13:11:00,47.0,34.0,29.89,ENE,66,0.0,4.0,61,0.00,,,0.00,,2013-10-02 19:11:00,
2013-10-02 13:21:00,47.0,34.0,29.88,West,273,0.0,4.0,60,0.00,,,0.00,,2013-10-02 19:21:00,
2013-10-02 13:42:00,47.0,34.0,29.88,NNW,338,1.0,4.0,61,0.00,,,0.00,,2013-10-02 19:42:00,
2013-10-02 13:52:00,47.0,33.0,29.87,NNE,15,2.0,6.0,58,0.00,,,0.00,,2013-10-02 19:52:00,
2013-10-02 14:11:00,47.0,33.0,29.86,ENE,66,0.0,4.0,58,0.00,,,0.00,,2013-10-02 20:11:00,
2013-10-02 14:22:00,48.0,34.0,29.85,West,280,3.0,7.0,58,0.00,,,0.00,,2013-10-02 20:22:00,
2013-10-02 14:42:00,48.0,34.0,29.84,West,269,4.0,9.0,57,0.00,,,0.00,,2013-10-02 20:42:00,
2013-10-02 14:52:00,48.0,34.0,29.83,SSW,210,4.0,7.0,57,0.00,,,0.00,,2013-10-02 20:52:00,
2013-10-02 15:11:00,49.0,34.0,29.83,WSW,251,6.0,8.0,57,0.00,,,0.00,,2013-10-02 21:11:00,
2013-10-02 15:22:00,50.0,34.0,29.82,NW,320,2.0,6.0,55,0.00,,,0.00,,2013-10-02 21:22:00,
2013-10-02 15:44:00,50.0,34.0,29.82,SW,236,2.0,7.0,54,0.00,,,0.00,,2013-10-02 21:44:00,
2013-10-02 15:54:00,50.0,33.0,29.82,SW,217,1.0,3.0,52,0.00,,,0.00,,2013-10-02 21:54:00,
2013-10-02 16:13:00,50.0,33.0,29.82,SSW,206,2.0,13.0,52,0.00,,,0.00,,2013-10-02 22:13:00,
2013-10-02 16:23:00,50.0,34.0,29.81,WSW,237,0.0,6.0,53,0.00,,,0.00,,2013-10-02 22:23:00,
2013-10-02 16:44:00,50.0,34.0,29.80,West,266,2.0,4.0,53,0.00,,,0.00,,2013-10-02 22:44:00,
2013-10-02 16:53:00,50.0,34.0,29.80,West,266,0.0,6.0,53,0.00,,,0.00,,2013-10-02 22:53:00,
2013-10-02 17:12:00,49.0,33.0,29.80,WSW,247,3.0,5.0,53,0.00,,,0.00,,2013-10-02 23:12:00,
2013-10-02 17:22:00,49.0,33.0,29.80,West,278,4.0,6.0,54,0.00,,,0.00,,2013-10-02 23:22:00,
2013-10-02 17:52:00,50.0,33.0,29.80,WSW,250,2.0,3.0,51,0.00,,,0.00,,2013-10-02 23:52:00,
2013-10-02 18:12:00,50.0,33.0,29.79,West,281,1.0,5.0,51,0.00,,,0.00,,2013-10-03 00:12:00,
2013-10-02 18:22:00,50.0,32.0,29.79,WNW,283,0.0,4.0,50,0.00,,,0.00,,2013-10-03 00:22:00,
2013-10-02 18:32:00,50.0,32.0,29.79,WNW,283,0.0,4.0,50,0.00,,,0.00,,2013-10-03 00:32:00,
2013-10-02 18:42:00,50.0,32.0,29.79,WNW,283,0.0,4.0,50,0.00,,,0.00,,2013-10-03 00:42:00,
2013-10-02 18:52:00,49.0,32.0,29.79,NW,312,0.0,0.0,51,0.00,,,0.00,,2013-10-03 00:52:00,
2013-10-02 19:11:00,49.0,30.0,29.79,North,360,8.0,11.0,48,0.00,,,0.00,,2013-10-03 01:11:00,
2013-10-02 19:22:00,48.0,29.0,29.79,NNE,13,7.0,10.0,47,0.00,,,0.00,,2013-10-03 01:22:00,
2013-10-02 19:42:00,48.0,29.0,29.79,North,5,5.0,9.0,47,0.00,,,0.00,,2013-10-03 01:42:00,
2013-10-02 19:52:00,47.0,28.0,29.79,NW,321,4.0,7.0,48,0.00,,,0.00,,2013-10-03 01:52:00,
2013-10-02 20:11:00,47.0,31.0,29.80,NNW,347,1.0,3.0,53,0.00,,,0.00,,2013-10-03 02:11:00,
2013-10-02 20:22:00,47.0,33.0,29.81,South,169,5.0,7.0,58,0.00,,,0.00,,2013-10-03 02:22:00,
2013-10-02 21:11:00,45.0,36.0,29.80,South,178,4.0,7.0,71,0.00,,,0.00,,2013-10-03 03:11:00,
2013-10-02 21:22:00,45.0,36.0,29.81,SSW,196,4.0,6.0,70,0.00,,,0.00,,2013-10-03 03:22:00,
2013-10-02 21:44:00,45.0,36.0,29.80,South,191,4.0,5.0,71,0.00,,,0.00,,2013-10-03 03:44:00,
2013-10-02 21:54:00,45.0,36.0,29.80,South,182,4.0,7.0,70,0.00,,,0.00,,2013-10-03 03:54:00,
2013-10-02 22:13:00,45.0,37.0,29.80,South,176,3.0,4.0,72,0.00,,,0.00,,2013-10-03 04:13:00,
2013-10-02 22:24:00,44.0,36.0,29.80,SSE,148,4.0,6.0,72,0.00,,,0.00,,2013-10-03 04:24:00,
2013-10-02 22:44:00,44.0,36.0,29.80,South,169,4.0,7.0,72,0.00,,,0.00,,2013-10-03 04:44:00,
2013-10-02 22:53:00,44.0,36.0,29.81,SSE,161,3.0,6.0,73,0.00,,,0.00,,2013-10-03 04:53:00,
2013-10-02 23:13:00,44.0,36.0,29.80,SSE,167,2.0,4.0,74,0.00,,,0.00,,2013-10-03 05:13:00,
2013-10-02 23:23:00,44.0,37.0,29.80,SE,131,2.0,4.0,76,0.00,,,0.00,,2013-10-03 05:23:00,
2013-10-02 23:43:00,44.0,37.0,29.79,ESE,123,2.0,4.0,75,0.00,,,0.00,,2013-10-03 05:43:00,
2013-10-02 23:52:00,44.0,36.0,29.78,ESE,123,1.0,3.0,73,0.00,,,0.00,,2013-10-03 05:52:00,